www.pogodaiklimat.ru

Погода и климат >> Архив погоды >> Канада >> Нунавут >> Корал-Харбор


ПОГОДА в Корал-Харборе

  • Прогноз погоды в Корал-Харборе
  • Монитор погоды в Корал-Харборе

АРХИВ ПОГОДЫ в Корал-Харборе

Время (UTC), дата Ветер
(напр.,м/с)
 
Видим.   Явления Облачность Т
(С)
Тd
(С)
f
(%)
Тe
(С)
Тes
(С)
Комфортность P
(гПа)
Po
(гПа)
Тmin
(С)
Tmax
(С)
R
(мм)
R24
(мм)
S
(см)
03 17.03 С 4 24 км ясно -25.0 -28.9 70 -35 -35 опасность
обморожения
1019.3 1010.8
06 17.03 СЗ 7 24 км ясно -28.8 -32.2 72 -43 -43 опасность
обморожения
1018.8 1010.3 -29.0 -20.6 182
09 17.03 С 7 24 км ясно -27.2 -31.0 70 -41 -41 опасность
обморожения
1019.0 1010.5
12 17.03 С 7 24 км ясно -27.8 -31.7 69 -41 -41 опасность
обморожения
1020.0 1011.5 -29.4 -20.6 46
15 17.03 С 7 24 км ясно -25.0 -29.0 69 -38 -37 опасность
обморожения
1019.8 1011.3
18 17.03 С 5 24 км 1/0
[Ci fib]
-20.6 -24.9 68 -31 -29 опасность
обморожения
1019.7 1011.2 -29.4 -20.6
21 17.03 В 2 24 км ясно -22.4 -25.9 73 -27 -26 1020.0 1011.5
00 18.03 С 4 24 км 1/0
[Ci fib]
-26.2 -29.5 74 -36 -36 опасность
обморожения
1019.8 1011.2 -29.4 -19.8
03 18.03 С 8 24 км ясно -27.1 -30.6 72 -42 -42 опасность
обморожения
1019.0 1010.5
06 18.03 С 8 24 км позёмок ясно -28.2 -31.7 72 -43 -43 опасность
обморожения
1018.5 1010.0 -29.4 -19.8 81
09 18.03 С 8 24 км ясно -27.5 -31.3 70 -42 -42 опасность
обморожения
1018.6 1010.1
12 18.03 С 9 24 км позёмок ясно -26.9 -31.4 66 -42 -42 опасность
обморожения
1018.3 1009.7 -30.0 -19.8 46
15 18.03 СЗ 3 24 км ясно -26.6 -31.3 64 -36 -34 опасность
обморожения
1018.9 1010.3
18 18.03 СЗ 3 24 км 3/0
[Ci fib]
-23.0 -28.5 61 -30 -27 1018.2 1009.7 -30.0 -23.0
21 18.03 СЗ 6 24 км 10/0
[]
-22.0 -27.3 62 -34 -33 опасность
обморожения
1017.0 1008.5
00 19.03 З 5 24 км 10/0
[As trans]
-23.5 -28.0 66 -34 -34 опасность
обморожения
1015.2 1006.7 -30.0 -21.2
03 19.03 З 4 24 км 10/10 1500 м
[]
-23.6 -26.8 75 -34 -34 опасность
обморожения
1013.2 1004.7
06 19.03 СЗ 1 19 км слаб. снег 10/8 1500 м
[Sc Ac As]
-22.8 -25.6 78 -26 -26 1010.2 1001.8 -30.0 -21.2 0.2 101
09 19.03 З 1 19 км 10/0
[]
-23.5 -26.4 77 -27 -27 1008.2 999.8
12 19.03 С 6 24 км слаб. снег 9/0 2000 м
[Ac As]
-25.3 -28.4 75 -38 -38 опасность
обморожения
1008.3 999.9 -26.4 -21.2 0.2 46
15 19.03 СЗ 6 24 км ясно -26.4 -30.3 70 -39 -38 опасность
обморожения
1010.0 1001.5
18 19.03 С 4 24 км {снег} ясно -20.5 -26.8 57 -29 -26 1011.7 1003.3 -26.8 -20.4 0.0 46
21 19.03 СЗ 6 24 км ясно -22.0 -26.1 69 -34 -33 опасность
обморожения
1012.8 1004.4
00 20.03 С 12 1600 м метель ясно -23.5 -27.4 70 -39 -39 опасность
обморожения
1013.8 1005.3 -26.8 -19.6
03 20.03 С 10 16 км 4/0
[]
-23.2 -27.4 68 -38 -38 опасность
обморожения
1013.7 1005.2
06 20.03 С 11 16 км позёмок 6/0
[Ac As Ci fib]
-24.4 -28.5 69 -40 -40 опасность
обморожения
1013.3 1004.9 -26.8 -19.6 22
09 20.03 С 11 19 км 8/0
[]
-23.6 -28.1 66 -39 -39 опасность
обморожения
1013.3 1004.9
12 20.03 СЗ 4 24 км 8/0
[]
-25.5 -30.0 66 -35 -35 опасность
обморожения
1013.1 1004.6 -19.6 46
15 20.03 ЮЗ 4 24 км 9/0
[]
-22.8 -26.8 70 -32 -31 опасность
обморожения
1010.0 1001.6
18 20.03 З 5 24 км 10/0 2000 м
[Ac As Ci fib]
-19.6 -23.8 69 -29 -28 1007.0 998.6
21 20.03 ЮВ 1 3200 м 9/9 600 м
[]
-19.5 -22.4 78 -23 -22 1003.0 994.7
00 21.03 В 4 3200 м слаб. снег 8/0 2000 м
[Ac As]
-18.6 -21.0 81 -27 -27 999.4 991.1 -18.5 1 48
03 21.03 В 5 3200 м 9/0 2000 м
[]
-18.0 -20.2 83 -28 -28 997.1 988.8
06 21.03 С 7 19 км слаб. снег 9/3 1000 м
[Sc Ac As]
-22.0 -25.2 75 -34 -34 опасность
обморожения
996.6 988.3 3 91
09 21.03 С 6 6000 м 8/8 1000 м
[]
-22.9 -25.9 76 -34 -34 опасность
обморожения
998.2 989.9
12 21.03 С 11 24 км в посл. час снег 4/3 1000 м
[Sc Ac As]
-20.4 -24.1 72 -35 -35 опасность
обморожения
1000.6 992.3 -26.6 1 50
15 21.03 С 4 24 км ясно -20.4 -24.7 68 -30 -28 1003.4 995.1
18 21.03 С 4 24 км 3/0 2000 м
[Ac As Ci fib]
-19.7 -24.5 66 -28 -25 1006.0 997.7 -26.6 -18.7
21 21.03 С 14 800 м ясно -21.3 -24.8 73 -37 -37 опасность
обморожения
1006.8 998.4
00 22.03 СЗ 5 19 км позёмок 1/1 300 м
[Sc Ac As]
-24.2 -28.1 70 -35 -35 опасность
обморожения
1010.3 1001.9 -26.6 -19.4
03 22.03 СЗ 8 24 км ясно -28.1 -31.9 70 -43 -43 опасность
обморожения
1012.0 1003.5
06 22.03 С 11 24 км позёмок ясно -27.6 -31.8 67 -44 -44 опасность
обморожения
1013.0 1004.5 -29.2 -18.7 212
09 22.03 С 10 24 км ясно -29.2 -33.1 69 -46 -46 опасность
обморожения
1013.7 1005.2
12 22.03 С 6 24 км 8/0
[Cs]
-29.1 -33.3 67 -42 -42 опасность
обморожения
1014.2 1005.7 -30.5 -18.7 50
15 22.03 СЗ 4 24 км 10/10 300 м
[]
-26.1 -30.6 66 -37 -37 опасность
обморожения
1012.0 1003.5
18 22.03 Ю 3 9000 м слаб. снег 10/3 1000 м
[Sc As op]
-24.7 -28.9 68 -32 -32 опасность
обморожения
1008.8 1000.3 -30.5 -24.1 0.0 50
21 22.03 В 7 800 м н/о -24.4 -27.5 75 -37 -37 опасность
обморожения
1003.4 995.0

 

Местоположение метеостанции Корал-Харбор (Нунавут, Канада): широта 64.20 долгота -83.36 высота над уровнем моря 64 м.

В архиве по умолчанию представлена погода в Корал-Харборе за последнюю неделю. Архивные данные за месяц целиком и за предыдущие месяцы, начиная с января 2011 года, Вы можете получить, выбрав интересующий диапазон дат из раскрывающегося списка и нажав кнопку "Ввод!".


*Определитесь, кто Вы:
робот инопланетянин человек

Внимание! Время в таблицах - всемирное. Для получения местного времени необходимо прибавить поправку, которая равна -5 ч.

Смотрите также архив погоды в соседних городах и на ближайших метеорологических станциях:

Погода в Кейп-Дорсете (Нунавут, Канада) (330 км)
Погода в Вейджер Бэй (Нунавут, Канада) (340 км)
Погода в Саллюите (Квебек, Канада) (446 км)
Погода в Ранкин-Инлете (Нунавут, Канада) (460 км)
Погода в Холл Бич (Нунавут, Канада) (518 км)
Погода в Кам Фор (Нунавут, Канада) (549 км)
Погода в Кугааруке (Нунавут, Канада) (560 км)
Погода на Острове Роули (Нунавут, Канада) (575 км)
Погода в Национальном парке Пингалюи (Квебек, Канада) (589 км)
Погода в Бейкер Лейк (Нунавут, Канада) (610 км)

Пояснения к столбцам:

Ветер - указаны скорость ветра в м/с - средняя за 10 мин, порывы в срок и между сроками (в фигурных скобках) и направление, откуда дует ветер: С - северный, СВ - северо-восточный, В - восточный, ЮВ - юго-восточный, Ю - южный, ЮЗ - юго-западный, З - западный, СЗ - северо-западный.
Видимость - горизонтальная дальность видимости в метрах или километрах. При видимости от 1 до 10 км при отсутствии осадков обычно наблюдается дымка, при ухудшении видимости до 1 км и менее - туман. В сухую погоду видимость может ухудшаться дымом, пылью или мглою.
Явления - указаны атмосферные явления, наблюдавшиеся в срок или в последний час перед сроком; фигурными скобками обозначены явления, наблюдавшиеся между сроками (за 1-3 часа до срока); квадратными скобками обозначены град или гололедные отложения с указанием их диаметра в мм.
Облачность - указаны через наклонную черту общая и нижняя облачность в баллах и высота нижней границы облаков в метрах; квадратными скобками обозначены формы облаков: Ci - перистые, Cs - перисто-слоистые, Cc - перисто-кучевые, Ac - высококучевые, As - высокослоистые, Sc - слоисто-кучевые, Ns - слоисто-дождевые, Cu - кучевые, Cb - кучево-дождевые. Подробнее классификацию облаков см. в Атласе облаков (PDF).
T - Температура воздуха - температура, измеренная на высоте 2 м над землей.
Td - Температура точки росы - температура, при понижении до которой содержащийся в воздухе водяной пар достигнет насыщения.
f - Относительная влажность воздуха - влажноcть воздуха, измеренная на высоте 2 м над землей.
Te - Эффективная температура - температура, которую ощущает одетый по сезону человек в тени. Характеристика душности погоды. При расчете учитывается влияние влажности воздуха и скорости ветра на теплоощущения человека.
Tes - Эффективная температура на солнце - температура, которую ощущает человек, с поправкой на солнечный нагрев. Характеристика знойности погоды. Зависит от высоты солнца над горизонтом, облачности и скорости ветра. Ночью, в пасмурную погоду, а также при ветре 12 м/с и более поправка равна нулю.
P - Атмосферное давление - приведенное к уровню моря атмосферное давление.
Po - Атмосферное давление - измеренное на уровне метеостанции атмосферное давление.
Tmin - Минимальная температура - минимум температуры воздуха на высоте 2 м над землей.
Tmax - Максимальная температура - максимум температуры воздуха на высоте 2 м над землей.
R - Количество осадков - Количество выпавших осадков за период времени, мм. При наведении курсора мыши на число - период времени, за который выпало указанное количество осадков.
R24 - Количество осадков - Количество выпавших осадков за 24 часа, мм.
S - Снежный покров - Высота снежного покрова, см. При наведении курсора мыши на число - состояние снежного покрова и степень покрытия местности в баллах.